GW4309 Weather Reports


time (UTC)temp
F
wind
direction
speed
knots
gust
knots
rain 1hr
in
rain 24hr
in
rain mn
in
humidity
%
barometer
mb
20260507071647 47 247 0.0 0.0 0.00 0.02 0.02 99 1004.6
20260507071143 47 272 0.0 0.0 0.00 0.02 0.02 99 1004.5
20260507070640 47 259 0.0 0.0 0.00 0.02 0.02 99 1004.5
20260507070137 47 253 0.0 0.0 0.00 0.02 0.02 99 1004.7
20260507065633 47 246 0.0 0.0 0.00 0.02 0.02 99 1004.3
20260507065130 47 246 0.0 0.0 0.00 0.02 0.02 99 1004.2
20260507064628 47 251 0.0 0.0 0.00 0.02 0.02 99 1004.2
20260507064127 47 256 0.0 0.0 0.00 0.02 0.02 99 1004.0
20260507063624 48 257 0.0 0.0 0.00 0.02 0.02 99 1003.8
20260507063121 48 259 0.0 0.0 0.00 0.02 0.02 99 1004.1
20260507062617 48 252 0.0 0.0 0.00 0.02 0.02 99 1004.0
20260507062115 47 252 0.0 0.0 0.00 0.02 0.02 99 1003.9
20260507061613 48 257 0.0 0.0 0.00 0.02 0.02 99 1003.8
20260507061111 47 263 0.0 0.0 0.00 0.02 0.02 99 1004.0
20260507060608 47 258 0.0 0.0 0.00 0.02 0.02 99 1003.5
20260507060104 47 259 0.0 0.0 0.00 0.02 0.02 99 1003.8
20260507055600 48 256 0.0 0.0 0.00 0.02 0.02 99 1003.8
20260507055056 48 257 0.0 0.0 0.00 0.02 0.02 99 1003.6
20260507054552 48 259 0.0 0.0 0.00 0.02 0.02 99 1003.5
20260507054049 48 274 0.0 0.0 0.00 0.02 0.02 99 1003.4
20260507053547 48 272 0.0 0.0 0.00 0.02 0.02 99 1003.7
20260507053046 48 266 0.0 0.0 0.00 0.02 0.02 99 1003.5
20260507052543 48 256 0.0 0.0 0.00 0.02 0.02 99 1003.6
20260507052039 48 259 0.0 0.0 0.00 0.02 0.02 99 1003.4
20260507051537 48 257 0.0 0.0 0.00 0.02 0.02 99 1003.5
20260507051034 49 241 0.0 0.0 0.00 0.02 0.02 99 1003.4
20260507050530 49 252 0.0 0.0 0.00 0.02 0.02 99 1003.4
20260507050027 49 277 0.0 0.0 0.00 0.02 0.02 99 1003.4
20260507045524 49 232 0.0 0.0 0.00 0.02 0.02 99 1003.4
20260507045021 49 290 0.0 0.0 0.00 0.02 0.02 99 1003.3
20260507044518 49 279 0.0 0.0 0.00 0.02 0.02 99 1003.7
20260507044014 49 276 0.0 0.0 0.00 0.02 0.02 99 1003.6
20260507043510 50 254 0.0 0.0 0.05 0.02 0.02 99 1003.6
20260507043008 50 261 0.0 0.0 0.05 0.02 0.02 99 1003.2
20260507042503 50 307 0.0 0.0 0.00 0.01 0.01 99 1003.3
20260507041959 51 264 0.0 0.0 0.00 0.01 0.01 99 1003.5
20260507041456 51 236 0.0 0.0 0.00 0.01 0.01 99 1003.9
20260507040953 51 241 0.0 0.0 0.07 0.01 0.01 99 1003.9
20260507040449 51 270 0.0 0.0 0.12 0.01 0.01 99 1003.6
20260507035945 52 283 0.9 0.9 0.24 0.49 0.49 99 1003.5
20260507035442 52 254 0.0 0.0 0.31 0.49 0.49 99 1003.5
20260507034939 52 268 0.0 0.0 0.07 0.45 0.45 99 1003.5
20260507034435 53 268 0.0 0.0 0.00 0.44 0.44 99 1003.2
20260507033934 53 302 0.0 0.0 0.00 0.44 0.44 99 1002.8
20260507033431 53 235 0.0 0.0 0.00 0.44 0.44 99 1002.9
20260507032928 54 301 0.0 0.0 0.00 0.44 0.44 99 1003.0
20260507032425 54 284 0.0 0.0 0.05 0.44 0.44 99 1002.8
20260507031921 55 229 0.0 0.0 0.05 0.44 0.44 99 1002.7
20260507031418 56 213 0.0 0.0 0.00 0.43 0.43 99 1002.5
20260507030914 56 269 0.0 0.0 0.00 0.43 0.43 99 1002.3
20260507030412 56 256 0.0 0.0 0.00 0.43 0.43 99 1002.5
20260507025908 56 251 0.0 0.0 0.00 0.43 0.43 99 1002.4
20260507025406 56 255 0.0 0.0 0.00 0.43 0.43 99 1002.4
20260507024904 56 242 0.0 0.0 0.00 0.43 0.43 99 1002.3
20260507024400 56 229 0.0 0.0 0.00 0.43 0.43 99 1002.5
20260507023856 56 246 0.0 0.0 0.07 0.43 0.43 99 1002.2
20260507023353 56 251 0.0 0.0 0.07 0.43 0.43 99 1002.3
20260507022851 56 246 0.0 0.0 0.00 0.42 0.42 99 1002.4
20260507022347 56 245 0.0 0.0 0.00 0.42 0.42 99 1002.4
20260507021843 56 255 0.0 0.0 0.00 0.42 0.42 99 1002.3
20260507021338 56 255 0.0 0.0 0.00 0.42 0.42 99 1002.3
20260507020837 56 250 0.0 0.0 0.00 0.42 0.42 99 1002.1
20260507020333 56 238 0.0 0.0 0.00 0.42 0.42 99 1002.3
20260507015830 56 238 0.0 0.0 0.00 0.42 0.42 99 1002.2
20260507015328 56 235 0.0 0.0 0.00 0.42 0.42 99 1002.1
20260507014825 56 227 0.0 0.0 0.00 0.42 0.42 99 1002.5
20260507014321 56 242 0.0 0.0 0.00 0.42 0.42 99 1002.3
20260507013818 56 244 0.0 0.0 0.00 0.42 0.42 99 1002.6
20260507013315 56 244 0.0 0.0 0.00 0.42 0.42 99 1002.6
20260507012813 56 229 0.0 0.0 0.00 0.42 0.42 99 1002.5
20260507012308 56 222 0.0 0.0 0.00 0.42 0.42 99 1002.6
20260507011806 56 229 0.0 0.0 0.00 0.42 0.42 99 1002.5
20260507011302 56 251 0.0 0.0 0.00 0.42 0.42 99 1002.4
20260507010802 56 231 0.0 0.0 0.00 0.42 0.42 99 1002.6
20260507010258 57 241 0.0 0.0 0.00 0.42 0.42 99 1002.6
20260507005755 57 233 0.0 0.0 0.00 0.42 0.42 99 1002.6
20260507005252 57 248 0.0 0.0 0.00 0.42 0.42 99 1002.4
20260507004748 57 236 0.0 0.0 0.00 0.42 0.42 99 1002.7
20260507004246 57 242 0.0 0.0 0.00 0.42 0.42 99 1002.5
20260507003742 57 251 0.0 0.0 0.00 0.42 0.42 99 1002.5
20260507003237 57 249 0.0 0.0 0.00 0.42 0.42 99 1002.4
20260507002734 57 230 0.0 0.0 0.00 0.42 0.42 99 1002.3
20260507002230 57 252 0.0 0.0 0.00 0.42 0.42 99 1002.5
20260507001727 57 245 0.0 0.0 0.00 0.42 0.42 99 1002.6
20260507001224 57 246 0.0 0.0 0.00 0.42 0.42 99 1002.4
20260507000720 57 220 0.0 0.9 0.00 0.42 0.42 99 1002.3
20260507000216 57 256 0.0 0.0 0.00 0.42 0.42 99 1002.5
20260506235713 57 260 0.9 1.7 0.00 0.42 0.42 99 1002.1
20260506235208 57 244 0.9 1.7 0.00 0.42 0.42 99 1002.4
20260506234706 57 198 0.0 0.0 0.00 0.42 0.42 99 1002.2
20260506234203 57 218 0.0 0.0 0.00 0.42 0.42 99 1002.0
20260506233700 57 220 0.0 0.0 0.00 0.42 0.42 99 1002.1
20260506233157 57 241 0.0 0.0 0.00 0.42 0.42 99 1002.3
20260506232653 57 169 0.0 0.0 0.00 0.42 0.42 99 1002.4
20260506232148 57 254 0.0 0.0 0.00 0.42 0.42 99 1002.3
20260506231645 57 237 0.0 0.0 0.00 0.42 0.42 99 1002.4
20260506231144 57 237 0.0 0.0 0.00 0.42 0.42 99 1002.3
20260506230640 57 219 0.0 0.0 0.00 0.42 0.42 99 1002.2
20260506230137 57 218 0.9 0.9 0.00 0.42 0.42 99 1002.5
20260506225634 57 234 0.0 0.0 0.00 0.42 0.42 99 1002.7
20260506225130 57 227 0.0 0.0 0.00 0.42 0.42 99 1002.5
20260506224627 57 231 0.0 0.0 0.00 0.42 0.42 99 1002.6
20260506224124 57 230 0.0 0.0 0.00 0.42 0.42 99 1002.5
20260506223620 57 231 0.0 0.0 0.00 0.42 0.42 99 1002.7
20260506223116 57 238 0.0 0.0 0.00 0.42 0.42 99 1002.7
20260506222614 57 243 0.0 0.0 0.00 0.42 0.42 99 1002.7
20260506222110 57 234 0.0 0.0 0.00 0.42 0.42 99 1002.9
20260506221608 57 200 0.0 0.0 0.00 0.42 0.42 99 1002.9
20260506221106 57 247 0.0 0.0 0.00 0.42 0.42 99 1002.8
20260506220601 57 256 0.0 0.0 0.00 0.42 0.42 99 1002.9
20260506220057 57 239 0.0 0.0 0.05 0.42 0.42 99 1003.1
20260506215554 57 234 0.0 0.0 0.05 0.42 0.42 99 1003.2
20260506215049 58 230 0.0 0.0 0.00 0.41 0.41 99 1003.1
20260506214547 58 246 0.0 0.0 0.07 0.41 0.41 99 1003.3
20260506214044 58 258 0.0 0.0 0.12 0.41 0.41 99 1003.1
20260506213542 58 219 0.0 0.0 0.12 0.40 0.40 99 1003.4
20260506213039 58 247 0.0 0.9 0.24 0.40 0.40 99 1003.5
20260506212535 58 248 0.0 0.0 0.17 0.38 0.38 99 1003.6
20260506212030 58 254 0.0 0.0 0.12 0.36 0.36 99 1003.6
20260506211526 58 255 0.0 0.0 0.26 0.35 0.35 99 1003.6
20260506211024 58 248 0.0 0.0 0.24 0.34 0.34 99 1003.4
20260506210520 58 249 0.0 0.0 0.05 0.31 0.31 99 1003.8
20260506210017 58 250 0.0 0.0 0.00 0.30 0.30 99 1003.4
20260506205514 58 255 0.0 0.0 0.00 0.30 0.30 99 1003.8
20260506205009 58 257 0.0 0.0 0.00 0.30 0.30 99 1003.7
20260506204508 59 251 0.0 0.0 0.07 0.30 0.30 99 1003.6
20260506204004 59 247 0.0 0.0 0.07 0.30 0.30 99 1003.5
20260506203502 58 249 0.0 0.0 0.05 0.29 0.29 99 1003.8
20260506202953 58 255 0.0 0.0 0.05 0.29 0.29 99 1003.7
20260506202450 58 238 0.0 0.0 0.07 0.28 0.28 99 1003.7
20260506201946 58 244 0.0 0.0 0.07 0.28 0.28 99 1003.5
20260506201444 58 242 0.0 0.0 0.05 0.27 0.27 99 1003.6
20260506200940 58 236 0.0 0.0 0.12 0.27 0.27 99 1003.5
20260506200436 58 246 0.0 0.0 0.07 0.26 0.26 98 1004.0
20260506195933 58 237 0.0 0.0 0.05 0.25 0.25 98 1003.9
20260506195430 58 243 0.0 0.0 0.05 0.25 0.25 98 1003.6
20260506194926 58 244 0.0 0.0 0.00 0.24 0.24 98 1004.1
20260506194424 58 248 0.0 0.0 0.00 0.24 0.24 98 1004.0
20260506193921 58 216 0.0 0.0 0.07 0.24 0.24 98 1004.1
20260506193418 58 238 0.0 0.0 0.07 0.24 0.24 98 1003.9
20260506192914 59 253 1.7 1.7 0.07 0.24 0.24 98 1004.0
20260506192411 59 237 0.0 0.0 0.05 0.23 0.23 98 1004.0
20260506191908 59 252 0.0 0.0 0.05 0.23 0.23 98 1003.7
20260506191404 59 236 0.0 0.0 0.07 0.22 0.22 98 1004.1
20260506190902 59 243 0.0 0.0 0.07 0.22 0.22 98 1004.0
20260506190358 59 246 0.0 0.0 0.07 0.22 0.22 98 1004.2
20260506185855 59 233 0.0 0.0 0.07 0.21 0.21 97 1004.1
20260506185352 59 240 0.0 0.0 0.05 0.20 0.20 97 1004.2
20260506184848 59 233 0.0 0.0 0.12 0.20 0.20 97 1004.3
20260506184345 59 226 0.0 0.0 0.12 0.19 0.19 97 1004.3
20260506183843 59 243 0.9 0.9 0.05 0.18 0.18 97 1004.7
20260506183338 59 252 0.0 0.9 0.42 0.17 0.17 97 1004.9
20260506182836 59 275 0.9 0.9 0.54 0.16 0.16 97 1004.9
20260506182333 59 223 0.0 0.0 0.35 0.12 0.12 97 1005.1
20260506181830 60 272 0.0 0.0 0.17 0.07 0.07 96 1004.7
20260506181328 60 251 0.0 0.0 0.24 0.06 0.06 95 1004.2
20260506180825 60 259 0.0 0.0 0.24 0.05 0.05 95 1004.3
20260506180321 61 261 0.0 0.0 0.12 0.02 0.02 94 1004.3
20260506175817 61 266 0.0 0.0 0.05 0.01 0.01 92 1004.0
20260506175314 62 244 0.0 0.0 0.00 0.00 0.00 91 1004.7
20260506174812 62 260 0.0 0.0 0.00 0.00 0.00 88 1004.2
20260506174309 63 246 0.9 0.9 0.00 0.00 0.00 86 1004.5
20260506173806 64 247 0.9 0.9 0.00 0.00 0.00 86 1004.0
20260506173303 64 244 0.9 0.9 0.00 0.00 0.00 82 1004.0
20260506172800 65 237 0.9 0.9 0.00 0.00 0.00 83 1004.6
20260506172256 64 244 0.0 0.0 0.00 0.00 0.00 81 1004.3
20260506171754 64 244 0.0 0.0 0.00 0.00 0.00 82 1004.5
20260506171251 64 227 0.0 0.0 0.00 0.00 0.00 83 1004.5
20260506170749 64 220 1.7 1.7 0.00 0.00 0.00 82 1004.6
20260506170245 64 246 0.0 0.0 0.00 0.00 0.00 83 1004.8
20260506165743 64 244 0.0 0.0 0.00 0.00 0.00 84 1004.9
20260506165240 64 244 0.0 0.0 0.00 0.00 0.00 82 1005.0
20260506164737 64 222 1.7 1.7 0.00 0.00 0.00 82 1005.2
20260506164234 64 246 0.0 0.0 0.00 0.00 0.00 82 1005.5
20260506163731 65 253 0.0 0.9 0.00 0.00 0.00 81 1005.5
20260506163226 65 259 0.0 0.0 0.00 0.00 0.00 80 1005.7
20260506162722 65 238 0.9 0.9 0.00 0.00 0.00 77 1006.3
20260506162220 66 193 1.7 1.7 0.00 0.00 0.00 77 1005.8
20260506161717 65 253 0.9 0.9 0.00 0.00 0.00 79 1006.3
20260506161214 65 246 0.0 0.9 0.00 0.00 0.00 79 1006.2
20260506160712 65 242 0.0 0.0 0.00 0.00 0.00 79 1006.0
20260506160208 65 246 0.9 0.9 0.00 0.00 0.00 79 1006.2
20260506155707 65 247 0.9 0.9 0.00 0.00 0.00 79 1006.2
20260506155203 64 243 0.9 0.9 0.00 0.00 0.00 79 1006.5
20260506153305 64 247 0.0 0.0 0.00 0.00 0.00 79 1006.6
20260506152802 64 255 0.0 0.0 0.00 0.00 0.00 79 1006.7
20260506152259 64 244 0.0 0.0 0.00 0.00 0.00 79 1006.3
20260506151758 64 233 0.9 0.9 0.00 0.00 0.00 79 1006.5
20260506151254 64 250 1.7 1.7 0.00 0.00 0.00 78 1006.5
20260506150751 64 253 0.9 1.7 0.00 0.00 0.00 79 1006.5
20260506150248 64 265 0.0 0.9 0.00 0.00 0.00 79 1006.5
20260506145745 64 213 1.7 1.7 0.00 0.00 0.00 78 1006.5
20260506145241 64 238 0.9 0.9 0.00 0.00 0.00 79 1006.7
20260506144739 64 227 1.7 1.7 0.00 0.00 0.00 79 1006.4
20260506144236 63 251 0.0 0.0 0.00 0.00 0.00 80 1006.2
20260506143733 63 251 0.9 0.9 0.00 0.00 0.00 80 1006.5
20260506143231 63 246 0.0 0.9 0.00 0.00 0.00 80 1006.3
20260506142729 63 236 0.0 0.0 0.00 0.00 0.00 81 1006.3
20260506142227 63 239 0.9 0.9 0.00 0.00 0.00 80 1006.5
20260506141725 63 262 0.9 0.9 0.00 0.00 0.00 80 1006.4
20260506141223 62 244 0.9 0.9 0.00 0.00 0.00 80 1006.5
20260506140720 62 239 0.9 0.9 0.00 0.00 0.00 80 1006.5
20260506140217 62 237 0.0 0.0 0.00 0.00 0.00 81 1006.7
20260506135714 62 242 0.0 0.0 0.00 0.00 0.00 82 1006.9
20260506135210 62 263 0.0 0.0 0.00 0.00 0.00 81 1006.9
20260506134707 61 255 0.0 0.0 0.00 0.00 0.00 81 1006.9
20260506134203 61 234 0.0 0.0 0.00 0.00 0.00 82 1007.2
20260506133700 61 233 0.0 0.0 0.00 0.00 0.00 82 1007.0
20260506133157 61 245 0.0 0.0 0.00 0.00 0.00 82 1006.9
20260506132654 61 245 0.0 0.9 0.00 0.00 0.00 82 1007.2
20260506132151 61 243 0.0 0.0 0.00 0.00 0.00 82 1007.2
20260506131649 61 243 0.0 0.0 0.00 0.00 0.00 82 1007.1
20260506131145 61 265 0.9 0.9 0.00 0.00 0.00 81 1007.0
20260506130642 61 245 0.0 0.9 0.00 0.00 0.00 82 1006.7
20260506130139 61 238 0.0 0.9 0.00 0.00 0.00 81 1006.8
20260506125637 61 236 0.0 0.9 0.00 0.00 0.00 82 1006.8
20260506125134 61 250 0.0 0.0 0.00 0.00 0.00 83 1006.9
20260506124632 61 259 0.0 0.9 0.00 0.00 0.00 82 1006.9
20260506124130 61 243 0.0 0.9 0.00 0.00 0.00 82 1007.1
20260506123627 60 248 0.9 0.9 0.00 0.00 0.00 83 1006.6
20260506123126 60 250 0.0 0.0 0.00 0.00 0.00 84 1007.0
20260506122622 60 242 0.0 0.0 0.00 0.00 0.00 85 1006.9
20260506122120 59 250 0.0 0.0 0.00 0.00 0.00 87 1007.2
20260506121617 58 267 0.0 0.0 0.00 0.00 0.00 89 1007.2
20260506121114 58 267 0.0 0.0 0.00 0.00 0.00 91 1007.0
20260506120612 58 267 0.0 0.0 0.00 0.00 0.00 94 1007.6
20260506120109 57 267 0.0 0.0 0.00 0.00 0.00 95 1007.2
20260506115607 57 267 0.0 0.0 0.00 0.00 0.00 95 1007.4
20260506115105 56 267 0.0 0.0 0.00 0.00 0.00 95 1007.4
20260506114602 56 267 0.0 0.0 0.00 0.00 0.00 96 1007.4
20260506114100 56 267 0.0 0.0 0.00 0.00 0.00 96 1007.3
20260506113558 55 267 0.0 0.0 0.00 0.00 0.00 96 1007.6
20260506113055 55 268 0.0 0.0 0.00 0.00 0.00 96 1007.4
20260506112551 55 267 0.0 0.0 0.00 0.00 0.00 96 1007.6
20260506112049 55 267 0.0 0.0 0.00 0.00 0.00 96 1007.7
20260506111547 55 267 0.0 0.0 0.00 0.00 0.00 96 1007.7
20260506111044 54 267 0.0 0.0 0.00 0.00 0.00 97 1007.6
20260506110541 54 267 0.0 0.0 0.00 0.00 0.00 97 1007.7
20260506110038 54 267 0.0 0.0 0.00 0.00 0.00 97 1007.7
20260506105534 54 268 0.0 0.0 0.00 0.00 0.00 97 1007.8
20260506105032 53 268 0.0 0.0 0.00 0.00 0.00 97 1007.6
20260506104530 53 265 0.0 0.0 0.00 0.00 0.00 97 1007.9
20260506104027 53 264 0.0 0.0 0.00 0.00 0.00 97 1007.6
20260506103524 53 264 0.0 0.0 0.00 0.00 0.00 97 1007.5
20260506103021 53 264 0.0 0.0 0.00 0.00 0.00 97 1007.6
20260506102520 53 265 0.0 0.0 0.00 0.00 0.00 97 1007.4
20260506102017 53 265 0.0 0.0 0.00 0.00 0.00 97 1007.4
20260506101513 53 265 0.0 0.0 0.00 0.00 0.00 97 1007.3
20260506101010 53 265 0.0 0.0 0.00 0.00 0.00 97 1007.4
20260506100508 53 265 0.0 0.0 0.00 0.00 0.00 97 1007.3
20260506100007 53 265 0.0 0.0 0.00 0.00 0.00 97 1007.4
20260506095505 53 265 0.0 0.0 0.00 0.00 0.00 97 1007.2
20260506095000 53 264 0.0 0.0 0.00 0.00 0.00 97 1007.3
20260506094459 53 266 0.0 0.0 0.00 0.00 0.00 96 1007.4
20260506093956 53 260 0.0 0.0 0.00 0.00 0.00 96 1007.4
20260506093454 53 260 0.0 0.0 0.00 0.00 0.00 96 1007.3
20260506092951 53 260 0.0 0.0 0.00 0.00 0.00 96 1007.2
20260506092449 53 261 0.0 0.0 0.00 0.00 0.00 96 1007.4
20260506091945 53 262 0.0 0.0 0.00 0.00 0.00 95 1007.2
20260506091444 54 262 0.0 0.0 0.00 0.00 0.00 95 1007.2
20260506090941 54 270 0.0 0.0 0.00 0.00 0.00 95 1007.0
20260506090439 54 274 0.0 0.0 0.00 0.00 0.00 94 1006.9
20260506085935 55 270 0.0 0.0 0.00 0.00 0.00 94 1007.1
20260506085432 55 289 0.0 0.0 0.00 0.00 0.00 95 1007.2
20260506084928 55 266 0.0 0.0 0.00 0.00 0.00 95 1007.2
20260506084425 55 271 0.0 0.0 0.00 0.00 0.00 95 1006.9
20260506083921 55 282 0.0 0.0 0.00 0.00 0.00 95 1007.0
20260506083419 55 269 0.0 0.0 0.00 0.00 0.00 95 1007.0
20260506082916 55 271 0.0 0.0 0.00 0.00 0.00 95 1006.9
20260506082413 55 253 0.0 0.0 0.00 0.00 0.00 95 1006.7
20260506081908 55 246 0.0 0.0 0.00 0.00 0.00 95 1006.8
20260506081407 54 246 0.0 0.0 0.00 0.00 0.00 96 1006.7
20260506080904 54 243 0.0 0.0 0.00 0.00 0.00 96 1006.7
20260506080401 54 243 0.0 0.0 0.00 0.00 0.00 96 1006.8
20260506073344 54 243 0.0 0.0 0.00 0.00 0.00 97 1006.7
20260506072841 54 243 0.0 0.0 0.00 0.00 0.00 97 1006.6
20260506072339 54 243 0.0 0.0 0.00 0.00 0.00 97 1006.8